Location: Narrabri
(30.3170°S, 149.7830°E)
Time: 04:23:13
(UTC+10:00)

Vanguard 1 - All Passes

Search period start: 20 June 2018 00:00
Search period end: 30 June 2018 00:00
Orbit: 650 x 3833 km, 34.3° (Epoch: 17 June)

Date Brightness Start Highest point End Pass type
(mag) Time Alt. Az. Time Alt. Az. Time Alt. Az.
20 Jun - 01:20:53 10° WNW 01:24:04 19° NNW 01:27:30 10° NNE night (unlit)
20 Jun - 13:44:31 10° N 13:55:56 17° NE 14:04:55 10° ENE daylight
20 Jun - 16:03:47 10° NW 16:20:38 45° NNE 16:30:18 10° E daylight
20 Jun - 18:29:46 10° WNW 18:43:22 89° NNE 18:50:27 10° ESE visible
20 Jun - 20:56:32 10° W 21:04:51 62° S 21:09:54 10° E visible
20 Jun - 23:19:58 10° WSW 23:25:18 68° NNW 23:29:41 10° ENE night (unlit)
21 Jun - 01:43:49 10° NW 01:44:55 11° NNW 01:46:04 10° NNW night (unlit)
21 Jun - 14:02:37 10° N 14:17:34 24° NE 14:28:21 10° E daylight
21 Jun - 16:24:32 10° NW 16:41:58 56° NNE 16:51:30 10° ESE daylight
21 Jun - 18:51:34 10° WNW 19:04:31 80° SSW 19:11:21 10° ESE visible
21 Jun - 21:18:07 10° WSW 21:25:59 65° S 21:30:54 10° E visible
21 Jun - 23:41:14 10° W 23:46:07 44° NNW 23:50:20 10° NE night (unlit)
22 Jun - 14:21:48 10° NNW 14:39:06 32° NNE 14:50:41 10° E daylight
22 Jun - 16:45:40 10° NW 17:03:15 68° NNE 17:12:34 10° ESE daylight
22 Jun - 19:13:27 10° W 19:25:43 72° S 19:32:15 10° ESE visible
22 Jun - 21:39:35 10° WSW 21:47:05 74° SSE 21:51:52 10° E visible
23 Jun - 00:02:40 10° W 00:06:52 27° NNW 00:10:39 10° NNE night (unlit)
23 Jun - 12:25:37 10° NNE 12:35:06 14° NE 12:43:23 10° ENE daylight
23 Jun - 14:41:41 10° NNW 15:00:34 41° NNE 15:12:29 10° E daylight
23 Jun - 17:07:08 10° WNW 17:24:31 80° NNE 17:33:33 10° ESE visible
23 Jun - 19:35:23 10° W 19:46:56 67° S 19:53:11 10° ESE visible
23 Jun - 22:00:58 10° WSW 22:08:06 88° NNW 22:12:47 10° ENE visible
24 Jun - 00:24:34 10° WNW 00:27:33 16° NW 00:30:24 10° N night (unlit)
24 Jun - 12:42:17 10° N 12:56:44 21° NE 13:08:25 10° E daylight
24 Jun - 15:02:04 10° NW 15:22:00 51° NNE 15:33:55 10° E daylight
24 Jun - 17:28:53 10° WNW 17:45:47 89° SSW 17:54:29 10° ESE visible
24 Jun - 19:57:15 10° W 20:08:09 67° S 20:14:09 10° E visible
24 Jun - 22:22:20 10° WSW 22:29:00 65° NNW 22:33:34 10° ENE visible
25 Jun - 13:00:46 10° NNW 13:18:16 28° NE 13:31:33 10° E daylight
25 Jun - 15:22:54 10° NW 15:43:23 62° NNE 15:55:09 10° ESE daylight
25 Jun - 17:50:50 10° WNW 18:07:04 80° SSW 18:15:25 10° ESE visible
25 Jun - 20:19:01 10° WSW 20:29:22 71° S 20:35:08 10° E visible
25 Jun - 22:43:44 10° WSW 22:49:46 44° NNW 22:54:08 10° NE night (unlit)
26 Jun - 13:20:08 10° NNW 13:39:44 37° NE 13:53:49 10° E daylight
26 Jun - 15:44:07 10° NW 16:04:46 73° NNE 16:16:14 10° ESE daylight
26 Jun - 18:12:54 10° W 18:28:23 74° S 18:36:22 10° ESE visible
26 Jun - 20:40:41 10° WSW 20:50:31 80° SSE 20:56:04 10° E visible
26 Jun - 23:05:20 10° W 23:10:26 28° NW 23:14:21 10° NNE night (unlit)
27 Jun - 11:23:42 10° NNE 11:35:32 16° NE 11:46:17 10° ENE daylight
27 Jun - 13:40:06 10° NNW 14:01:09 46° NNE 14:15:35 10° E daylight
27 Jun - 16:05:39 10° WNW 16:26:08 83° NNE 16:37:15 10° ESE daylight
27 Jun - 18:34:59 10° W 18:49:43 71° S 18:57:21 10° E visible
27 Jun - 21:02:15 10° WSW 21:11:34 85° NNW 21:16:57 10° ENE visible
27 Jun - 23:27:26 10° W 23:30:59 17° NW 23:33:59 10° N night (unlit)
28 Jun - 11:40:57 10° N 11:56:59 23° NE 12:10:54 10° E daylight
28 Jun - 14:00:32 10° NW 14:22:35 56° NNE 14:37:03 10° ESE daylight
28 Jun - 16:27:29 10° WNW 16:47:32 88° SSW 16:58:16 10° ESE daylight
28 Jun - 18:57:03 10° W 19:11:03 71° S 19:18:21 10° E visible
28 Jun - 21:23:48 10° WSW 21:32:30 65° NNW 21:37:41 10° NE visible
29 Jun - 11:59:38 10° NNW 12:18:21 31° NE 12:33:58 10° E daylight
29 Jun - 14:21:23 10° NW 14:44:01 66° NNE 14:58:20 10° ESE daylight
29 Jun - 16:49:31 10° WNW 17:08:58 81° SSW 17:19:16 10° ESE daylight
29 Jun - 19:19:01 10° WSW 19:32:22 75° S 19:39:20 10° E visible
29 Jun - 21:45:22 10° WSW 21:53:15 46° NW 21:58:11 10° NE visible
